This is the latest recevied weather packets stored in our database for station/object WP3OF. If no packets are shown the sender has not sent any weather packets the latest 1 day(s).
| Time | Temp. | Humidity | Pressure | Rain* | Wind** | Luminosity | Snow |
|---|---|---|---|---|---|---|---|
| 1836274784 | 24.44° C | 87% | 1017.3 hPa | 0 mm | 0.89 m/s, 261° | - | - |
| 1836274482 | 24.44° C | 87% | 1017.3 hPa | 0 mm | 1.34 m/s, 267° | - | - |
| 1836274336 | 24.44° C | 87% | 1017.4 hPa | 0 mm | 0.89 m/s, 192° | - | - |
| 1836274180 | 24.44° C | 88% | 1017.5 hPa | 0 mm | 1.34 m/s, 250° | - | - |
| 1836273875 | 24.44° C | 87% | 1017.5 hPa | 0 mm | 1.34 m/s, 208° | - | - |
| 1778045563 | - | - | - | 0 mm | 0.89 m/s, 139° | - | - |
| 1778045260 | - | - | - | 0 mm | 0.89 m/s, 155° | - | - |
| 1778044958 | - | - | - | 0 mm | 0.45 m/s, 170° | - | - |
| 1778044655 | - | - | - | 0 mm | 0.45 m/s, 166° | - | - |
| 1778044351 | - | - | - | 0 mm | 0.45 m/s, 177° | - | - |
| 1778044050 | - | - | - | 0 mm | 0.89 m/s, 175° | - | - |
| 1778043747 | - | - | - | 0 mm | 1.34 m/s, 197° | - | - |
| 1778043443 | - | - | - | 0 mm | 0.89 m/s, 191° | - | - |
| 1778043140 | - | - | - | 0 mm | 0.89 m/s, 190° | - | - |
| 1778042838 | - | - | - | 0 mm | 0 m/s | - | - |
| 1778042535 | - | - | - | 0 mm | 0 m/s | - | - |
| 1778042232 | - | - | - | 0 mm | 0.45 m/s, 140° | - | - |
| 1778041930 | - | - | - | 0 mm | 1.34 m/s, 139° | - | - |
| 1778041628 | - | - | - | 0 mm | 0.89 m/s, 150° | - | - |
| 1778041326 | - | - | - | 0 mm | 0.89 m/s, 169° | - | - |
| 1778041025 | - | - | - | 0 mm | 1.79 m/s, 137° | - | - |
| 1778040721 | - | - | - | 0 mm | 0.89 m/s, 167° | - | - |
| 1778040418 | - | - | - | 0 mm | 0.89 m/s, 141° | - | - |
| 1778040115 | - | - | - | 0 mm | 0.89 m/s, 154° | - | - |
| 1778039812 | - | - | - | 0 mm | 1.34 m/s, 157° | - | - |
* Rain latest hour (hover to see other rain measurements)
** Current wind speed in m/s (hover to see current wind gust speed)